Location: Brede
(50.9167°N, 0.6000°E)
Time: 02:55:39
(UTC+00:00)

Meteor 1-16 Rocket - Pass Details

Date: 08 August 2020
Orbit: 791 x 907 km, 81.2° (Epoch: 27 September)

Event Time Altitude Azimuth Distance (km) Brightness Sun altitude
Exits shadow 03:26:17 - 184° (S) 3,172 6.8 -9.7°
Reaches altitude 10° 03:28:19 10° 182° (S) 2,378 6.2 -9.5°
Maximum altitude 03:33:39 73° 99° (E) 860 4.4 -8.9°
Drops below altitude 10° 03:39:12 10° 16° (NNE) 2,463 7.5 -8.2°
Sets 03:41:40 0° 14° (NNE) 3,420 8.3 -7.9°
